Date,TemperatureHighF,TemperatureAvgF,TemperatureLowF,DewpointHighF,DewpointAvgF,DewpointLowF,HumidityHigh,HumidityAvg,HumidityLow,PressureMaxIn,PressureMinIn,WindSpeedMaxMPH,WindSpeedAvgMPH,GustSpeedMaxMPH,PrecipitationSumIn
2013-1-1,39.9,36.7,27.0,30.7,25.3,11.1,75,63,50,29.86,29.68,16,4,16,0.00
2013-1-2,32.7,27.7,22.6,18.9,14.9,10.7,67,58,50,30.02,29.84,14,4,14,0.00
2013-1-3,32.8,23.6,23.2,21.2,-0.8,-99.9,73,54,53,30.05,29.91,10,-153,10,0.00
2013-1-4,37.8,34.6,31.6,25.1,23.0,20.8,71,62,55,29.93,29.79,14,4,15,0.00
2013-1-5,41.5,35.4,30.5,26.3,23.5,20.3,78,62,51,30.12,29.85,18,3,18,0.00
2013-1-6,44.4,38.8,33.2,34.1,30.0,25.0,92,71,58,30.07,29.82,9,2,9,0.00
2013-1-7,43.1,38.5,33.5,31.8,27.6,22.9,81,65,47,30.25,29.89,12,2,12,0.00
2013-1-8,47.6,40.8,34.1,34.5,31.5,25.6,83,70,57,30.28,30.18,12,2,12,0.00
2013-1-9,49.1,42.3,31.5,41.1,35.0,28.5,90,76,60,30.24,29.97,14,2,14,0.00
2013-1-10,46.5,41.9,34.8,34.6,27.8,24.8,72,57,44,30.39,30.06,15,3,15,0.00
2013-1-11,45.2,35.5,31.6,44.7,21.1,-99.9,98,75,69,30.39,29.95,6,-104,6,0.41
2013-1-12,45.1,43.4,41.7,44.6,42.9,41.2,99,98,97,30.03,29.91,11,0,11,0.10
2013-1-13,48.5,45.3,41.5,48.2,44.8,41.1,100,98,94,30.01,29.86,11,1,11,0.00
2013-1-14,55.7,49.6,37.9,53.7,45.5,35.0,100,87,64,30.14,29.77,14,2,14,0.02
2013-1-15,38.4,36.7,34.7,35.1,31.4,27.9,94,81,69,30.19,30.07,9,0,9,0.08
2013-1-16,36.6,34.5,32.8,36.1,33.6,30.3,98,96,82,30.07,29.64,12,1,12,0.62
2013-1-17,43.1,39.2,34.4,35.7,31.0,25.3,96,73,58,29.94,29.75,7,2,11,0.01
2013-1-18,34.4,26.0,24.8,25.6,5.2,-99.9,71,52,39,30.33,29.85,13,-78,13,0.00
2013-1-19,50.6,40.2,28.8,37.6,26.6,15.0,77,59,41,30.26,29.78,22,3,22,0.00
2013-1-20,53.7,43.2,30.3,33.3,25.4,13.0,73,52,23,29.88,29.54,18,4,18,0.00
2013-1-21,32.3,29.4,25.1,20.8,15.1,9.8,69,55,45,29.95,29.67,12,2,12,0.00
2013-1-22,28.4,18.7,13.8,19.6,-6.5,-99.9,70,42,33,30.04,29.67,18,-88,18,0.00
2013-1-23,19.5,15.1,11.7,3.0,-1.9,-5.6,61,46,36,30.09,30.00,17,3,17,0.00
2013-1-24,22.4,17.0,11.9,5.9,2.0,-1.3,68,52,36,30.23,29.98,25,4,25,0.00
2013-1-25,24.6,17.2,14.1,18.9,0.5,-99.9,91,58,1,30.25,29.91,12,-64,13,0.00
2013-1-26,26.7,19.4,15.5,14.8,3.4,-99.9,87,63,45,30.20,29.89,19,-67,19,0.02
2013-1-27,32.3,25.3,17.1,15.3,12.3,8.6,75,58,40,30.35,30.20,11,2,11,0.02
2013-1-28,35.4,31.3,24.8,34.4,26.1,14.0,97,82,59,30.33,29.85,16,1,16,0.23
2013-1-29,46.9,40.0,35.3,41.5,38.0,34.3,98,93,79,30.00,29.84,9,0,9,0.10
2013-1-30,54.6,48.8,37.6,53.9,48.2,37.1,99,98,95,29.94,29.25,27,4,27,0.00
2013-1-31,57.7,44.7,29.9,57.1,32.3,11.2,98,64,37,29.62,28.90,36,8,36,0.53
2013-2-1,30.8,22.5,24.5,15.9,-11.7,-99.9,63,39,37,30.06,29.62,18,-206,18,0.00
2013-2-2,29.9,25.3,19.8,22.6,11.8,7.0,92,57,39,30.14,29.91,16,2,16,0.00
2013-2-3,30.0,23.9,22.7,23.2,9.7,-99.9,94,73,66,29.91,29.63,7,-94,7,0.05
2013-2-4,30.1,24.0,23.3,22.9,0.7,-99.9,80,51,44,29.82,29.65,16,-111,16,0.00
2013-2-5,30.3,29.1,27.4,29.0,25.9,17.3,95,88,63,29.83,29.75,8,0,8,0.01
2013-2-6,38.7,32.9,28.0,29.1,22.9,10.4,97,69,44,30.20,29.76,16,3,16,0.01
2013-2-7,31.7,27.8,23.9,22.7,13.3,7.1,75,55,41,30.36,30.19,6,0,6,0.00
2013-2-8,34.1,32.0,27.5,33.1,29.6,22.8,97,91,75,30.19,29.45,20,3,20,0.24
2013-2-9,30.2,26.8,20.8,26.7,20.5,11.3,97,78,57,30.17,29.57,25,5,25,0.00
2013-2-10,32.9,24.5,15.1,27.1,14.8,8.2,88,67,42,30.33,30.17,8,1,9,0.16
2013-2-11,45.3,34.3,29.7,44.8,18.4,-99.9,99,82,85,30.18,29.51,13,-152,13,0.73
2013-2-12,44.1,39.9,34.1,40.3,30.1,26.3,99,69,53,29.82,29.56,12,3,12,0.01
2013-2-13,42.9,35.8,28.1,31.8,26.9,23.5,91,71,50,29.80,29.54,8,0,8,0.00
2013-2-14,44.6,37.0,30.5,36.1,30.9,24.5,97,80,51,29.85,29.55,12,1,12,0.00
2013-2-15,51.4,41.6,34.7,38.8,35.6,32.3,93,80,58,29.87,29.77,11,2,11,0.00
2013-2-16,40.7,34.8,29.7,34.4,27.9,18.6,96,77,58,29.81,29.56,12,2,12,0.00
2013-2-17,31.0,26.5,17.6,19.6,8.6,2.7,65,47,34,29.82,29.49,26,7,26,0.00
2013-2-18,34.2,26.0,17.7,16.9,8.4,3.6,60,47,34,30.07,29.82,21,5,21,0.00
2013-2-19,45.8,39.6,31.8,43.2,32.8,16.2,97,78,51,30.06,29.52,19,3,19,0.18
2013-2-20,38.3,31.2,25.5,28.3,16.4,11.5,67,54,42,29.82,29.55,20,6,20,0.00
2013-2-21,33.8,28.2,24.3,18.4,14.6,11.9,71,57,46,30.13,29.81,23,6,23,0.00
2013-2-22,37.7,31.9,25.0,31.2,23.9,17.1,83,72,60,30.25,30.11,8,0,8,0.00
2013-2-23,43.4,38.2,35.2,42.6,36.6,31.2,98,94,83,30.13,29.65,12,1,12,0.24
2013-2-24,46.0,38.3,33.4,39.4,33.6,24.8,98,84,61,29.80,29.58,17,3,17,0.01
2013-2-25,45.7,37.1,29.6,31.1,27.1,24.5,84,68,50,30.08,29.80,11,1,11,0.00
2013-2-26,44.0,36.7,29.2,35.6,31.7,28.1,97,83,65,30.14,29.76,11,1,11,0.12
2013-2-27,50.2,42.8,36.2,49.3,41.1,34.9,98,94,83,29.77,29.33,17,2,17,1.35
2013-2-28,50.2,43.9,39.7,41.3,37.1,31.8,91,77,61,29.47,29.39,8,1,8,0.01
2013-3-1,45.2,39.7,33.4,34.5,31.2,27.6,90,72,55,29.62,29.44,12,2,12,0.00
2013-3-2,40.1,35.9,30.8,30.4,26.9,24.9,94,70,59,29.62,29.53,11,3,11,0.00
2013-3-3,40.2,32.6,28.4,28.6,22.8,19.4,92,68,47,29.59,29.49,14,4,14,0.00
2013-3-4,41.4,33.3,27.6,24.0,21.3,17.6,72,61,48,29.74,29.59,22,6,22,0.00
2013-3-5,45.9,38.1,30.9,30.7,26.4,21.5,75,63,49,29.86,29.74,16,2,16,0.00
2013-3-6,41.6,38.7,34.7,37.1,33.2,30.6,90,81,72,29.83,29.69,26,4,26,0.00
2013-3-7,37.7,34.4,32.5,34.8,32.2,30.0,97,92,85,29.91,29.75,17,3,17,0.12
2013-3-8,38.4,34.1,31.0,34.1,31.8,29.3,98,92,71,30.01,29.84,10,1,10,0.12
2013-3-9,50.4,40.7,33.2,33.8,28.0,22.1,93,63,34,30.17,30.01,12,2,12,0.00
2013-3-10,48.3,37.7,28.8,38.2,33.4,28.1,98,85,63,30.24,30.15,8,1,8,0.00
2013-3-11,53.1,45.6,38.2,48.5,42.0,35.4,94,88,72,30.18,29.95,15,1,15,0.00
2013-3-12,53.6,50.9,43.4,52.7,48.7,38.6,98,92,82,29.95,29.53,25,5,25,1.05
2013-3-13,50.6,42.9,36.0,38.6,32.0,24.0,96,68,39,29.73,29.63,12,2,12,0.00
2013-3-14,39.7,34.7,29.2,30.2,15.5,7.8,72,46,29,29.80,29.68,26,7,26,0.00
2013-3-15,45.7,37.3,29.4,32.5,20.4,9.8,69,50,37,29.82,29.56,22,4,22,0.00
2013-3-16,40.7,35.1,32.1,31.6,27.3,21.6,95,75,54,29.75,29.62,13,1,13,0.04
2013-3-17,37.7,33.0,29.0,30.7,21.9,13.5,95,65,43,30.15,29.75,14,2,14,0.02
2013-3-18,36.7,31.5,25.8,32.4,20.7,10.7,96,66,46,30.25,29.88,11,1,11,0.00
2013-3-19,39.9,36.1,33.3,37.2,34.5,31.9,98,94,83,29.87,29.53,16,2,16,0.97
2013-3-20,44.9,37.9,32.1,31.9,22.1,17.9,82,54,36,29.73,29.63,16,4,16,0.00
2013-3-21,37.4,33.6,31.3,27.8,24.0,14.5,84,68,43,29.69,29.48,14,2,15,0.00
2013-3-22,42.4,35.2,29.0,23.8,19.3,14.6,66,52,40,29.72,29.57,16,4,16,0.00
2013-3-23,45.2,38.5,32.9,25.0,21.9,19.1,67,52,39,29.77,29.65,20,5,20,0.00
2013-3-24,46.9,38.5,30.6,28.6,24.2,20.4,70,57,41,29.79,29.56,11,1,11,0.00
2013-3-25,40.4,36.1,32.0,35.7,29.6,-99.9,96,75,1,29.57,29.31,19,-16,19,0.10
2013-3-26,52.2,41.4,32.0,35.9,31.5,27.2,96,69,1,29.70,29.42,11,1,11,0.01
2013-3-27,53.2,43.0,33.5,32.2,28.1,22.5,75,57,32,29.80,29.70,17,3,17,0.00
2013-3-28,50.9,42.7,35.6,38.7,32.6,29.8,84,68,52,29.94,29.80,10,2,10,0.08
2013-3-29,57.6,46.7,38.2,34.9,30.8,27.5,73,55,34,29.98,29.89,14,3,14,0.01
2013-3-30,58.4,46.9,37.4,37.4,31.1,21.4,81,57,27,30.01,29.91,10,2,10,0.00
2013-3-31,53.9,45.7,36.1,44.7,36.8,31.0,97,73,45,29.97,29.50,15,2,15,0.15
2013-4-1,62.9,38.2,37.4,47.9,7.3,-99.9,97,53,37,29.75,29.46,20,-218,20,0.01
2013-4-2,43.9,38.2,32.6,18.7,15.3,11.5,54,40,28,29.93,29.75,17,5,17,0.00
2013-4-3,46.8,38.7,32.9,17.0,14.5,11.6,49,37,27,30.13,29.92,18,6,18,0.00
2013-4-4,52.1,40.0,30.8,34.1,23.6,15.9,76,53,33,30.23,29.94,16,3,16,0.00
2013-4-5,61.7,48.7,40.5,37.4,28.0,16.8,86,49,22,29.94,29.55,19,3,19,0.00
2013-4-6,51.4,41.6,35.2,31.0,20.0,7.0,72,44,19,30.16,29.83,17,3,17,0.00
2013-4-7,53.7,45.9,38.3,44.9,37.4,28.9,89,73,56,30.15,29.85,22,4,22,0.00
2013-4-8,73.8,56.1,43.8,48.3,44.8,41.9,95,70,34,29.93,29.83,12,2,12,0.00
2013-4-9,82.3,64.7,45.6,55.3,46.0,38.2,97,58,23,29.86,29.74,16,2,16,0.24
2013-4-10,75.5,60.0,51.5,57.0,50.4,44.8,98,72,50,29.86,29.64,24,2,24,0.36
2013-4-11,59.8,53.5,47.1,56.6,49.7,39.0,99,87,69,29.90,29.62,14,1,14,0.02
2013-4-12,47.2,42.8,40.4,42.4,39.9,36.7,97,90,69,29.89,29.56,15,2,15,0.59
2013-4-13,55.4,46.2,38.6,42.4,39.3,35.8,97,79,49,29.82,29.58,12,2,12,0.04
2013-4-14,58.1,50.7,44.7,44.9,36.2,27.9,93,60,35,30.07,29.81,19,3,19,0.00
2013-4-15,58.5,47.9,39.9,38.9,33.3,28.9,79,58,39,30.23,30.07,10,1,10,0.00
2013-4-16,63.4,53.5,43.6,53.6,47.7,36.8,92,81,68,30.22,29.97,21,3,21,0.00
2013-4-17,69.0,59.5,51.9,55.0,44.6,34.6,94,62,32,30.14,29.95,11,2,11,0.01
2013-4-18,60.0,53.9,46.9,55.0,44.8,37.4,96,73,46,30.20,29.96,14,2,14,0.00
2013-4-19,68.8,59.5,54.0,62.3,57.8,53.4,99,94,77,29.95,29.51,23,5,23,0.00
2013-4-20,59.8,53.5,47.2,58.9,38.0,27.2,97,60,32,30.13,29.52,14,4,14,0.18
2013-4-21,54.2,44.8,37.3,32.8,25.7,20.3,68,48,29,30.47,30.13,15,3,15,0.00
2013-4-22,55.4,45.6,34.6,39.0,33.8,27.9,89,65,40,30.51,30.34,14,2,14,0.00
2013-4-23,50.5,44.6,40.7,43.1,38.5,33.6,92,79,71,30.34,29.95,12,2,12,0.00
2013-4-24,66.1,51.2,40.6,51.0,45.0,38.6,96,81,52,29.96,29.70,18,3,18,0.00
2013-4-25,64.6,55.0,46.4,52.3,35.7,21.8,95,52,22,30.11,29.71,15,3,15,0.00
2013-4-26,67.3,54.9,42.0,42.3,36.8,29.6,85,54,28,30.25,30.11,9,1,9,0.00
2013-4-27,69.9,55.2,43.9,38.7,32.6,22.6,65,45,19,30.27,30.14,13,1,13,0.00
2013-4-28,68.3,55.6,45.8,46.6,39.7,29.4,89,59,27,30.17,30.06,14,2,14,0.00
2013-4-29,57.2,54.5,51.3,50.7,47.4,44.0,92,77,64,30.09,30.04,11,1,11,0.31
2013-4-30,66.7,56.9,48.2,48.9,38.4,24.1,86,55,23,30.18,30.06,11,1,11,0.00
2013-5-1,69.0,54.0,40.7,49.4,41.6,32.7,91,65,39,30.33,30.18,11,1,11,0.00
2013-5-2,72.2,56.0,42.7,50.0,44.5,41.5,96,69,38,30.32,30.18,9,1,9,0.00
2013-5-3,67.7,54.7,46.9,46.4,42.5,37.8,91,65,36,30.31,30.21,14,1,14,0.00
2013-5-4,70.3,53.2,44.1,48.7,43.9,40.1,97,74,37,30.22,30.11,12,1,12,0.00
2013-5-5,65.8,50.7,41.1,46.7,41.9,38.8,92,74,43,30.15,30.07,12,1,12,0.00
2013-5-6,68.2,54.4,42.8,54.1,47.8,41.3,96,80,56,30.12,30.00,9,1,9,0.00
2013-5-7,73.1,59.7,46.9,61.3,54.4,45.8,98,83,63,30.02,29.94,7,0,7,0.00
2013-5-8,65.2,58.8,52.4,62.6,57.5,51.6,99,95,89,29.96,29.83,8,0,8,0.74
2013-5-9,64.4,58.0,54.0,60.3,56.7,53.4,99,96,83,29.87,29.74,6,0,6,0.20
2013-5-10,80.5,65.9,56.1,61.8,56.9,52.9,96,75,42,29.85,29.74,14,1,14,0.00
2013-5-11,66.8,61.8,59.9,63.3,60.1,56.9,99,95,81,29.75,29.55,16,2,16,0.38
2013-5-12,71.3,61.1,52.0,62.2,45.7,27.5,99,62,28,29.78,29.50,15,2,15,0.04
2013-5-13,60.4,51.1,44.7,36.1,31.8,25.0,70,48,32,29.94,29.78,14,2,14,0.00
2013-5-14,60.9,51.0,40.7,42.8,35.1,25.9,81,57,29,29.97,29.87,11,1,11,0.00
2013-5-15,64.8,57.6,50.3,58.8,49.0,39.4,90,73,51,29.92,29.54,18,2,18,0.01
2013-5-16,79.0,67.9,60.2,59.4,53.0,42.6,88,62,35,29.67,29.55,13,1,13,0.00
2013-5-17,70.7,63.3,56.5,50.5,44.9,41.6,65,52,36,30.05,29.67,6,0,6,0.00
2013-5-18,68.0,58.5,50.4,55.8,50.2,43.5,91,75,52,30.16,30.05,9,0,9,0.01
2013-5-19,58.4,57.1,55.5,58.0,55.3,48.1,99,94,70,30.18,30.02,6,0,8,0.32
2013-5-20,76.8,66.4,57.8,69.4,63.3,57.4,100,91,73,30.02,29.81,13,1,13,0.01
2013-5-21,85.5,73.2,63.5,72.5,67.2,62.4,99,83,62,29.83,29.70,13,2,13,0.00
2013-5-22,74.7,66.6,57.6,70.5,63.8,56.5,98,91,80,29.79,29.69,11,1,11,0.00
2013-5-23,77.4,67.4,63.4,69.7,65.0,62.5,98,92,75,29.76,29.62,19,3,19,0.04
2013-5-24,66.8,57.0,46.8,66.1,56.1,44.3,99,97,91,29.77,29.52,13,1,13,0.29
2013-5-25,51.9,47.9,43.6,47.6,43.9,40.0,99,87,66,29.83,29.72,17,2,17,0.36
2013-5-26,67.5,55.7,47.2,45.5,41.2,36.8,78,60,36,30.05,29.78,13,2,13,0.00
2013-5-27,74.8,61.1,47.8,48.9,42.1,35.6,74,52,27,30.09,29.97,11,1,11,0.00
2013-5-28,68.4,58.5,52.2,57.6,52.8,46.1,99,83,46,30.07,29.98,9,0,9,0.42
2013-5-29,80.8,67.6,56.3,70.0,62.7,56.0,100,86,66,29.99,29.85,11,1,11,0.01
2013-5-30,92.5,79.7,69.8,70.3,66.5,63.2,88,66,42,29.97,29.91,12,2,14,0.00
2013-5-31,91.9,80.1,70.8,72.2,67.3,63.2,86,66,43,29.98,29.84,13,2,13,0.00
2013-6-1,88.0,77.3,69.3,72.4,67.4,64.1,88,73,56,29.88,29.76,13,3,13,0.00
2013-6-2,84.0,73.6,66.1,71.2,66.4,63.2,92,79,62,29.78,29.64,12,2,12,0.00
2013-6-3,75.5,69.9,66.2,70.5,67.4,53.8,99,92,64,29.73,29.65,12,1,12,0.39
2013-6-4,74.7,65.6,56.0,56.0,49.1,43.0,77,57,36,29.96,29.73,5,0,5,0.00
2013-6-5,75.8,63.9,53.9,58.3,49.2,42.3,91,61,37,30.06,29.95,9,0,9,0.00
2013-6-6,71.5,63.6,58.2,59.7,57.1,47.9,96,81,47,30.00,29.87,9,0,9,0.03
2013-6-7,62.7,60.7,58.3,62.4,60.2,58.0,99,98,94,29.88,29.48,12,1,12,2.41
2013-6-8,78.2,65.6,56.1,67.8,61.9,55.8,100,89,68,29.90,29.42,10,0,10,0.50
2013-6-9,81.5,69.5,59.8,64.5,60.9,57.5,98,76,48,30.02,29.90,11,0,11,0.00
2013-6-10,71.9,65.2,62.6,67.8,63.7,62.0,99,95,83,30.01,29.70,9,0,9,0.78
2013-6-11,80.8,70.9,63.0,71.2,66.9,61.0,100,88,59,29.70,29.46,11,1,11,0.27
2013-6-12,75.7,68.9,62.5,61.5,57.2,53.9,82,67,50,29.70,29.55,9,1,9,0.00
2013-6-13,65.4,62.5,55.6,61.8,58.8,54.6,98,88,72,29.69,29.32,14,1,14,0.67
2013-6-14,70.8,59.3,52.8,61.0,55.7,52.2,99,89,61,29.73,29.35,11,1,11,0.28
2013-6-15,80.3,68.2,58.2,61.8,57.6,51.5,95,72,39,29.85,29.73,9,0,9,0.00
2013-6-16,80.5,71.8,61.1,67.8,60.0,51.2,82,67,38,29.84,29.62,13,1,13,0.00
2013-6-17,85.5,75.7,68.2,69.9,66.4,63.5,91,74,54,29.76,29.69,14,1,14,0.00
2013-6-18,84.3,69.9,63.4,72.5,66.3,62.2,98,89,57,29.75,29.67,8,0,8,0.23
2013-6-19,76.6,66.4,57.3,63.4,56.0,46.7,98,72,42,30.02,29.73,9,0,9,0.00
2013-6-20,79.7,68.3,57.5,61.2,56.1,53.2,89,66,48,30.12,30.02,14,2,14,0.00
2013-6-21,82.7,70.9,62.2,61.5,56.1,52.3,79,61,44,30.16,30.09,13,2,13,0.00
2013-6-22,84.2,71.3,62.7,65.4,59.3,54.6,88,67,46,30.11,29.99,13,2,13,0.00
2013-6-23,85.7,75.1,67.1,73.4,66.9,59.0,95,76,60,30.05,29.92,16,3,16,0.17
2013-6-24,92.3,79.4,71.9,75.7,71.0,65.0,97,77,56,29.93,29.79,12,1,12,0.00
2013-6-25,91.8,81.0,71.9,74.7,69.1,64.8,84,68,48,29.85,29.65,8,1,13,0.00
2013-6-26,85.5,79.1,73.9,71.5,69.3,66.9,89,73,57,29.69,29.62,8,0,8,0.00
2013-6-27,82.0,75.0,71.0,76.7,71.9,69.2,99,90,74,29.68,29.44,15,1,15,0.39
2013-6-28,84.5,76.2,71.4,73.9,71.1,67.5,96,85,65,29.44,29.33,13,2,13,0.00
2013-6-29,83.3,75.2,69.7,72.0,69.6,67.3,92,83,62,29.56,29.35,15,2,15,0.01
2013-6-30,84.5,74.4,69.8,76.6,71.8,68.4,97,92,73,29.77,29.56,12,1,12,0.00
2013-7-1,78.3,73.2,71.9,74.4,72.0,70.8,98,96,87,29.92,29.76,15,1,15,0.35
2013-7-2,82.0,74.7,72.1,76.1,72.5,71.0,98,93,80,30.04,29.91,14,2,14,0.08
2013-7-3,85.8,76.1,70.7,76.3,72.6,69.8,97,89,72,30.10,30.03,13,1,13,0.05
2013-7-4,88.1,79.7,74.1,79.9,74.5,72.4,98,85,68,30.11,30.01,15,2,15,0.01
2013-7-5,92.0,82.1,74.9,77.2,74.1,72.3,94,78,59,30.07,29.94,12,2,12,0.00
2013-7-6,94.2,84.8,76.9,76.9,73.6,71.1,89,71,51,29.99,29.87,8,1,8,0.00
2013-7-7,91.8,84.8,77.1,78.3,74.1,67.9,88,71,54,29.91,29.78,12,1,12,0.21
2013-7-8,90.5,80.2,73.2,72.4,69.6,66.2,86,71,50,29.89,29.82,14,1,14,0.00
2013-7-9,89.5,79.3,72.6,76.8,71.3,66.9,95,77,56,29.92,29.84,14,1,14,0.09
2013-7-10,85.5,78.7,72.9,77.9,73.3,70.1,94,84,72,29.88,29.66,18,2,18,0.06
2013-7-11,81.0,77.2,72.7,74.3,72.0,66.7,94,84,71,29.77,29.65,8,1,8,0.02
2013-7-12,75.0,71.9,67.7,70.5,67.4,64.2,98,86,77,29.95,29.77,11,1,11,0.27
2013-7-13,80.7,73.4,67.7,77.7,72.2,67.1,99,96,87,30.14,29.95,6,0,6,0.02
2013-7-14,91.7,80.5,72.1,78.5,74.3,71.3,99,83,56,30.18,30.08,11,1,11,0.00
2013-7-15,94.6,84.2,77.9,78.1,74.8,72.4,85,74,54,30.09,29.98,5,0,5,0.00
2013-7-16,94.1,82.6,73.8,74.0,70.7,67.4,93,69,45,30.05,29.98,4,0,4,0.00
2013-7-17,96.5,83.6,73.6,74.8,70.7,65.1,89,67,38,30.04,29.91,8,0,8,0.00
2013-7-18,99.3,87.2,77.3,77.9,74.3,70.2,85,67,42,29.92,29.80,6,0,6,0.00
2013-7-19,95.7,88.2,80.0,80.3,77.2,75.1,86,71,54,29.82,29.64,21,2,21,0.19
2013-7-20,94.3,86.0,79.8,76.8,73.2,66.4,79,66,50,29.69,29.57,15,1,15,0.00
2013-7-21,86.6,79.1,73.7,73.2,67.8,61.2,92,70,45,29.82,29.68,7,0,7,0.00
2013-7-22,82.0,75.7,72.3,78.3,73.8,70.7,98,94,82,29.81,29.66,6,0,6,0.67
2013-7-23,86.5,76.9,71.2,77.4,73.7,69.2,99,91,67,29.66,29.41,11,1,11,0.56
2013-7-24,82.2,74.7,68.4,72.5,68.6,57.5,98,82,64,29.78,29.47,7,0,7,0.00
2013-7-25,68.3,63.3,61.1,61.4,57.9,54.1,98,83,68,29.90,29.78,9,1,9,0.41
2013-7-26,78.8,69.0,61.4,67.8,63.8,60.8,98,85,60,29.90,29.83,7,0,7,0.01
2013-7-27,82.8,73.7,67.7,68.2,65.6,60.2,93,78,52,29.91,29.82,9,1,9,0.00
2013-7-28,78.0,72.4,66.5,71.2,68.3,64.7,98,88,67,29.85,29.79,10,0,10,0.01
2013-7-29,86.4,75.9,69.4,71.5,66.1,52.6,98,74,42,29.95,29.81,13,0,13,0.02
2013-7-30,83.7,72.3,62.6,63.0,60.0,56.7,89,67,46,30.01,29.94,7,0,7,0.00
2013-7-31,83.7,72.2,62.9,65.8,61.9,59.5,90,71,45,30.01,29.90,6,0,8,0.00
2013-8-1,75.0,70.0,66.1,68.6,66.5,61.9,98,89,71,29.90,29.69,13,1,13,0.40
2013-8-2,84.5,74.4,66.8,70.4,65.7,59.6,99,77,47,29.76,29.64,11,0,11,0.02
2013-8-3,77.8,72.7,68.6,69.8,64.0,58.3,92,75,58,29.77,29.69,11,0,11,0.01
2013-8-4,82.3,71.4,63.5,65.9,60.7,52.9,93,71,43,29.81,29.69,10,0,10,0.00
2013-8-5,78.8,68.4,59.3,59.4,53.7,48.7,88,62,37,29.91,29.80,5,0,6,0.00
2013-8-6,79.8,69.6,60.1,65.1,59.6,54.8,95,72,45,29.99,29.89,12,1,12,0.00
2013-8-7,79.3,71.7,65.9,68.4,64.4,60.9,88,78,61,30.00,29.93,13,1,13,0.00
2013-8-8,81.5,73.7,68.5,75.0,70.9,67.1,97,91,78,29.93,29.86,13,2,13,0.07
2013-8-9,84.6,77.2,73.7,77.1,74.3,71.9,97,91,74,29.88,29.66,17,2,17,0.02
2013-8-10,83.0,75.1,67.7,73.4,65.4,57.4,93,73,51,29.90,29.70,4,0,4,0.00
2013-8-11,83.2,71.1,60.9,65.4,58.6,53.7,88,66,40,29.98,29.88,8,0,8,0.00
2013-8-12,79.5,72.4,69.2,72.0,69.2,65.3,99,90,74,29.90,29.78,6,0,6,0.22
2013-8-13,73.3,70.8,67.9,72.5,69.4,66.9,99,95,84,29.79,29.56,8,0,8,0.58
2013-8-14,76.2,67.6,59.6,67.1,56.4,49.9,98,69,49,29.90,29.59,7,1,7,0.00
2013-8-15,80.0,67.3,56.2,59.6,54.9,48.5,92,67,35,30.00,29.90,9,0,9,0.00
2013-8-16,81.8,69.2,59.4,62.6,57.7,52.7,92,69,41,30.06,29.98,7,0,7,0.00
2013-8-17,83.7,70.1,59.8,65.7,59.9,56.5,92,72,43,30.13,30.06,6,0,6,0.00
2013-8-18,76.1,68.6,63.9,65.8,62.4,57.2,93,81,59,30.11,29.98,5,0,5,0.00
2013-8-19,77.8,71.0,64.2,65.9,62.5,55.9,89,75,60,29.98,29.88,9,0,9,0.00
2013-8-20,87.8,75.3,64.9,69.6,66.5,61.7,97,76,44,29.98,29.90,6,0,6,0.00
2013-8-21,89.2,76.9,67.2,71.6,67.4,60.1,97,75,41,30.03,29.91,11,1,11,0.17
2013-8-22,77.8,74.1,71.6,74.8,71.4,68.8,98,92,85,29.92,29.73,11,1,11,0.14
2013-8-23,81.0,73.0,66.7,70.9,63.2,56.6,95,73,49,29.95,29.72,6,0,6,0.00
2013-8-24,80.2,68.8,60.5,61.1,57.1,50.1,90,68,38,30.20,29.95,8,0,8,0.00
2013-8-25,84.7,71.0,60.1,62.2,58.1,51.7,97,68,34,30.24,30.08,12,1,12,0.00
2013-8-26,85.3,74.4,68.2,70.1,62.9,56.1,96,68,53,30.09,29.77,11,1,11,0.05
2013-8-27,85.3,76.1,71.0,73.9,69.8,67.7,96,82,64,29.77,29.67,7,1,7,0.02
2013-8-28,84.0,74.9,68.3,73.2,69.8,66.7,97,85,62,29.75,29.70,8,0,8,0.16
2013-8-29,79.8,72.4,69.4,70.0,67.7,65.0,96,86,67,29.89,29.74,9,0,9,0.00
2013-8-30,85.3,74.7,66.8,71.7,68.0,64.1,93,81,60,29.89,29.71,12,1,12,0.00
2013-8-31,86.5,76.9,71.7,74.8,71.8,68.9,92,85,67,29.73,29.65,12,2,12,0.00
2013-9-1,83.5,76.6,73.1,77.1,73.1,71.2,96,89,73,29.72,29.66,9,1,9,0.04
2013-9-2,79.9,76.1,72.9,76.7,74.2,71.4,98,94,87,29.67,29.57,8,0,8,0.04
2013-9-3,81.5,73.9,68.6,73.7,67.8,58.7,99,83,57,29.74,29.56,7,0,7,0.04
2013-9-4,82.8,72.0,63.8,61.9,59.3,54.6,87,66,41,29.84,29.73,7,0,7,0.00
2013-9-5,81.5,70.5,61.7,63.8,56.1,44.5,85,62,38,30.00,29.77,6,1,6,0.00
2013-9-6,72.2,62.1,53.7,50.8,47.2,42.2,80,60,39,30.11,29.98,8,0,8,0.00
2013-9-7,81.1,67.2,57.1,59.6,52.9,44.3,83,62,31,29.98,29.75,11,1,12,0.00
2013-9-8,81.0,70.7,62.2,67.6,58.2,46.4,82,66,43,29.93,29.67,7,1,7,0.15
2013-9-9,72.9,62.7,52.1,61.2,51.9,46.0,90,69,42,30.10,29.93,9,1,9,0.00
2013-9-10,80.8,73.8,66.9,72.9,68.4,61.2,90,84,75,30.02,29.91,11,2,11,0.00
2013-9-11,93.0,81.2,74.0,78.6,73.7,71.8,94,79,61,29.97,29.84,13,2,13,0.00
2013-9-12,85.0,75.4,68.8,74.7,71.3,68.2,98,87,70,29.85,29.54,18,2,18,0.49
2013-9-13,76.0,67.9,59.8,68.3,63.1,52.7,99,85,64,29.69,29.49,6,0,6,0.06
2013-9-14,67.2,59.6,53.8,55.1,50.8,48.8,85,73,58,29.97,29.69,5,0,5,0.00
2013-9-15,72.5,60.2,49.5,57.8,50.7,44.8,93,73,39,30.07,29.94,8,0,8,0.00
2013-9-16,71.3,63.4,57.7,60.0,56.3,49.4,94,78,58,30.08,29.89,6,0,6,0.01
2013-9-17,64.7,55.0,47.6,49.7,42.8,38.2,83,64,45,30.28,30.09,9,1,12,0.00
2013-9-18,72.1,58.9,48.2,53.8,48.3,44.4,93,71,40,30.20,30.04,6,0,8,0.00
2013-9-19,76.9,63.9,52.2,58.7,53.0,46.1,91,70,35,30.05,29.92,11,1,11,0.00
2013-9-20,79.8,66.1,55.8,62.2,58.1,54.3,96,77,50,29.94,29.86,8,1,9,0.00
2013-9-21,73.6,67.0,59.7,68.8,64.0,58.0,97,90,81,29.87,29.54,16,2,17,0.22
2013-9-22,70.3,63.3,55.3,68.0,55.5,45.8,98,77,52,29.76,29.50,14,1,14,1.05
2013-9-23,66.3,56.0,50.1,49.0,44.2,-99.9,80,67,50,29.90,29.76,9,-10,9,0.00
2013-9-24,68.5,57.7,45.5,51.7,46.8,41.5,89,69,46,29.91,29.72,5,0,5,0.00
2013-9-25,71.3,59.9,50.2,54.8,49.8,45.8,91,71,47,29.81,29.73,6,0,6,0.00
2013-9-26,70.2,60.5,53.8,59.9,55.8,52.3,98,85,63,29.95,29.79,3,0,7,0.00
2013-9-27,66.7,58.6,52.7,57.5,53.8,51.6,97,85,65,30.12,29.95,7,0,7,0.00
2013-9-28,73.7,62.1,52.8,59.5,54.6,51.6,97,78,51,30.17,30.09,8,0,8,0.00
2013-9-29,71.7,60.0,53.2,60.0,54.2,49.2,98,83,51,30.09,29.94,6,0,6,0.00
2013-9-30,72.8,60.5,50.8,58.6,54.4,50.0,98,82,51,29.94,29.82,6,0,6,0.00
2013-10-1,78.7,66.0,55.3,61.8,57.4,53.1,93,76,47,29.85,29.75,5,0,5,0.00
2013-10-2,81.0,70.3,60.3,65.3,61.1,56.6,91,74,53,29.86,29.75,7,0,7,0.00
2013-10-3,76.2,67.3,56.9,62.3,57.8,52.9,96,73,50,29.98,29.86,8,0,8,0.00
2013-10-4,84.2,71.0,62.2,69.9,63.8,58.2,96,79,58,29.93,29.82,8,0,8,0.00
2013-10-5,72.3,66.8,63.8,66.2,63.7,61.7,96,90,78,29.95,29.87,7,0,7,0.00
2013-10-6,67.9,65.6,64.2,67.2,64.7,63.1,98,97,94,29.96,29.90,6,0,6,0.00
2013-10-7,74.5,68.2,59.2,70.2,65.9,55.0,97,93,82,29.90,29.65,22,2,22,0.14
2013-10-8,65.5,58.9,53.4,55.5,48.4,44.3,88,69,49,30.17,29.83,4,0,7,0.00
2013-10-9,61.9,55.9,50.1,52.4,49.6,46.3,93,80,67,30.25,30.14,9,0,9,0.00
2013-10-10,62.5,58.0,51.9,57.4,53.7,49.2,91,85,82,30.14,29.93,12,1,12,0.00
2013-10-11,66.5,62.8,59.1,60.9,57.9,51.4,90,84,64,29.94,29.86,10,1,10,0.00
2013-10-12,71.3,63.3,57.4,57.5,51.2,40.6,82,66,34,30.14,29.92,13,1,13,0.00
2013-10-13,65.0,58.0,52.6,54.8,51.9,48.7,89,81,68,30.24,30.13,10,1,10,0.00
2013-10-14,64.3,55.0,47.1,55.0,49.8,44.8,95,83,67,30.22,30.10,6,0,6,0.00
2013-10-15,69.9,57.2,49.2,60.7,52.2,46.0,98,85,51,30.12,29.97,3,0,5,0.00
2013-10-16,65.7,58.9,50.9,59.8,55.9,49.5,96,90,79,29.97,29.78,6,0,6,0.00
2013-10-17,70.8,64.0,60.7,64.2,61.3,59.3,98,91,75,29.78,29.56,12,1,12,0.00
2013-10-18,67.0,61.6,55.0,63.0,50.7,45.2,96,69,49,29.83,29.53,9,1,9,0.01
2013-10-19,63.4,56.0,48.1,56.5,48.5,43.6,88,77,55,29.85,29.60,9,0,9,0.00
2013-10-20,61.4,55.3,49.4,56.5,43.7,37.3,91,66,43,29.91,29.59,7,0,7,0.00
2013-10-21,65.3,56.0,45.3,49.6,43.6,36.2,93,65,37,30.00,29.84,18,1,18,0.00
2013-10-22,67.5,58.2,51.9,52.2,48.8,41.5,85,72,53,29.84,29.60,12,1,12,0.00
2013-10-23,51.8,48.8,44.8,44.8,40.1,36.6,88,72,59,29.67,29.47,7,0,7,0.00
2013-10-24,53.7,46.9,41.1,38.2,33.9,28.3,82,62,42,29.85,29.60,8,1,8,0.00
2013-10-25,52.4,46.0,40.7,36.6,33.7,30.9,75,63,46,30.07,29.85,8,1,8,0.00
2013-10-26,54.4,48.0,40.1,36.8,34.6,30.4,83,61,41,30.07,29.76,20,2,20,0.00
2013-10-27,56.9,50.8,46.4,39.2,35.4,32.7,66,56,42,29.97,29.70,6,1,6,0.00
2013-10-28,59.7,49.5,38.6,39.0,36.5,34.0,86,62,42,30.17,29.97,9,0,9,0.00
2013-10-29,54.6,46.9,41.5,39.1,36.4,34.0,81,67,49,30.27,30.17,6,0,6,0.00
2013-10-30,58.6,50.9,42.3,52.9,45.7,35.5,96,83,70,30.20,30.03,11,0,11,0.00
2013-10-31,64.7,58.8,50.7,60.5,56.1,47.9,96,91,82,30.08,29.67,19,2,19,0.01
2013-11-1,67.5,63.5,59.0,63.1,59.4,55.5,97,87,68,29.67,29.41,23,3,23,0.08
2013-11-2,65.8,57.3,51.4,57.9,50.4,42.1,97,79,50,29.63,29.47,8,0,8,0.00
2013-11-3,53.6,45.9,36.7,44.3,36.3,23.3,84,69,58,30.29,29.62,9,1,9,0.00
2013-11-4,45.1,37.8,33.2,27.6,22.8,18.8,73,55,39,30.51,30.29,9,0,9,0.00
2013-11-5,54.2,45.8,35.6,42.7,37.1,26.1,84,72,60,30.50,30.34,6,0,6,0.00
2013-11-6,60.4,52.7,43.4,56.4,47.4,41.2,96,83,60,30.34,29.92,14,1,14,0.00
2013-11-7,63.2,54.8,42.4,59.6,51.3,32.6,97,88,64,29.92,29.60,13,2,13,0.13
2013-11-8,48.7,43.7,40.3,34.8,30.6,26.3,77,61,45,30.06,29.76,11,2,11,0.00
2013-11-9,48.4,43.8,37.0,36.7,30.5,26.7,77,60,44,30.13,29.86,15,1,15,0.00
2013-11-10,60.2,49.6,43.6,40.5,35.7,31.2,72,60,38,29.89,29.65,14,2,14,0.00
2013-11-11,51.7,47.9,42.2,35.0,31.1,27.8,59,52,45,30.05,29.82,14,2,14,0.00
2013-11-12,50.9,38.4,30.8,38.3,28.1,19.2,96,68,53,30.12,29.77,12,2,12,0.09
2013-11-13,37.7,32.8,28.3,22.0,18.3,13.9,69,55,38,30.20,30.12,9,2,9,0.00
2013-11-14,51.1,42.2,33.3,27.0,21.5,16.9,64,46,28,30.12,30.00,10,2,10,0.00
2013-11-15,55.6,47.9,40.3,42.5,32.8,24.4,84,57,37,30.10,30.01,11,2,11,0.00
2013-11-16,57.7,49.5,44.1,50.7,42.8,33.1,97,79,54,30.17,30.07,7,0,7,0.06
2013-11-17,61.1,54.1,43.7,60.4,53.3,42.8,99,97,91,30.13,29.65,9,0,10,0.02
2013-11-18,63.4,58.5,50.3,59.9,44.2,28.7,99,64,37,29.65,29.45,21,3,21,0.27
2013-11-19,50.3,43.0,34.3,32.2,27.8,24.0,67,55,46,30.19,29.62,20,4,20,0.00
2013-11-20,41.6,35.0,30.1,24.6,20.4,14.7,76,56,33,30.46,30.19,8,1,8,0.00
2013-11-21,50.9,41.4,29.1,43.0,33.8,23.4,90,75,57,30.46,30.24,8,0,8,0.00
2013-11-22,55.2,52.2,48.1,51.7,48.2,42.3,97,87,76,30.24,29.74,9,1,9,0.05
2013-11-23,53.7,41.9,30.8,49.9,28.0,7.0,87,59,37,29.88,29.74,21,4,21,0.00
2013-11-24,30.8,25.8,22.8,10.8,6.7,0.3,53,44,29,30.21,29.83,26,8,26,0.00
2013-11-25,34.2,28.5,22.2,18.4,13.8,8.4,65,54,43,30.32,30.19,15,3,15,0.00
2013-11-26,51.7,37.8,33.2,51.0,28.1,17.5,98,70,46,30.19,29.64,8,1,11,0.30
2013-11-27,62.0,48.3,34.3,61.4,46.4,24.1,99,93,66,29.64,29.18,17,5,30,1.42
2013-11-28,34.3,31.0,28.1,23.7,16.4,11.8,66,55,42,30.32,29.57,21,4,21,0.00
2013-11-29,37.1,32.2,28.5,23.1,20.1,16.3,73,61,53,30.58,30.32,10,1,10,0.00
2013-11-30,36.2,30.8,23.1,29.4,21.3,13.1,83,68,45,30.61,30.22,8,0,8,0.00
2013-12-1,47.3,41.1,35.2,39.2,34.8,29.4,90,78,66,30.22,29.86,5,0,5,0.00
2013-12-2,46.2,40.3,35.1,41.8,37.6,33.7,95,90,83,29.86,29.74,5,0,5,0.00
2013-12-3,50.0,40.6,34.1,39.4,36.0,33.3,98,85,63,29.85,29.72,4,0,4,0.00
2013-12-4,48.8,41.6,34.7,40.8,37.3,32.8,95,85,71,29.99,29.85,4,0,4,0.00
2013-12-5,56.6,51.5,43.3,55.4,50.4,40.7,99,96,90,29.98,29.79,11,1,11,0.02
2013-12-6,55.8,46.6,35.6,55.5,45.9,34.6,99,98,95,30.00,29.73,9,1,9,0.36
2013-12-7,40.2,35.9,31.4,35.4,30.0,21.1,97,80,61,30.35,29.93,14,2,14,0.11
2013-12-8,32.5,30.4,28.1,29.8,23.0,19.0,95,74,62,30.44,30.22,8,1,8,0.00
2013-12-9,39.9,36.0,31.2,39.4,35.3,29.6,99,97,94,30.23,29.80,10,1,10,0.19
2013-12-10,35.9,33.3,29.3,34.7,30.6,19.7,97,90,67,29.97,29.69,14,2,14,0.03
2013-12-11,32.5,29.7,26.5,20.4,18.3,16.0,67,62,52,30.17,29.97,14,4,14,0.02
2013-12-12,29.1,24.9,22.6,18.7,10.5,5.6,69,54,45,30.19,30.00,15,4,15,0.00
2013-12-13,33.9,29.0,23.4,20.8,14.2,7.3,68,53,49,30.18,29.97,15,3,15,0.00
2013-12-14,34.1,26.8,24.0,33.2,23.0,18.6,97,86,64,30.35,29.64,11,2,11,0.05
2013-12-15,40.7,35.4,30.6,40.2,31.3,22.5,98,86,65,29.69,29.32,20,3,20,0.92
2013-12-16,32.7,28.1,22.6,24.4,14.6,10.5,72,57,46,30.08,29.68,15,3,15,0.00
2013-12-17,31.7,26.0,21.7,30.3,21.7,12.5,95,84,62,30.08,29.77,9,0,9,0.00
2013-12-18,36.1,29.1,22.6,26.1,22.7,19.9,92,77,63,30.01,29.76,13,2,13,0.01
2013-12-19,44.8,38.1,29.1,31.8,27.2,21.6,81,65,51,30.03,29.88,14,2,14,0.08
2013-12-20,51.4,45.7,39.1,43.9,35.8,31.0,89,69,53,29.96,29.82,15,2,16,0.00
2013-12-21,58.9,52.7,47.2,52.3,48.7,44.0,93,86,73,29.86,29.76,13,3,13,0.00
2013-12-22,65.6,58.9,52.1,59.9,55.8,50.0,98,90,78,29.82,29.67,20,4,20,0.00
2013-12-23,59.9,53.1,39.8,57.6,51.9,36.7,99,96,87,29.99,29.72,13,1,13,0.39
2013-12-24,39.7,35.0,26.8,36.7,26.9,10.4,89,72,49,30.18,29.93,19,3,19,0.01
2013-12-25,27.0,22.3,19.3,16.8,2.4,-99.9,67,53,52,30.37,30.17,16,-81,16,0.00
2013-12-26,35.6,30.9,26.0,28.0,24.3,16.7,86,76,65,30.28,30.00,10,1,10,0.00
2013-12-27,39.9,34.8,30.3,26.4,23.3,19.3,77,63,44,30.21,30.11,12,2,12,0.00
2013-12-28,54.1,44.0,34.5,31.6,28.8,26.0,77,56,40,30.13,29.92,17,3,17,0.00
2013-12-29,47.0,43.3,40.2,44.5,37.0,29.5,97,80,51,29.93,29.22,15,2,15,0.89
2013-12-30,44.0,35.5,23.6,39.7,28.3,13.2,96,76,55,30.04,29.53,16,3,16,0.01
2013-12-31,31.8,26.3,20.8,24.3,15.7,10.8,75,64,52,30.12,29.91,14,2,16,0.00
2014-1-1,32.2,28.1,23.1,22.8,16.2,9.0,71,61,50,30.26,30.11,12,2,12,0.00
2014-1-2,31.6,26.0,17.4,26.1,22.7,15.3,93,87,70,30.10,29.51,17,3,17,0.00